Location: Betz
(49.1556°N, 2.9558°E)
Time: 06:03:40
(UTC+00:00)

MetOp-A - Pass Details

Date: 18 September 2019
Orbit: 820 x 821 km, 98.6° (Epoch: 17 October)

Event Time Altitude Azimuth Distance (km) Brightness Sun altitude
Exits shadow 19:37:08 25° 136° (SE) 1,597 5.1 -16.9°
Maximum altitude 19:40:06 56° 69° (ENE) 979 4.3 -17.4°
Drops below altitude 10° 19:45:21 10° 353° (N) 2,430 7.0 -18.1°
Sets 19:47:44 0° 349° (N) 3,367 7.9 -18.5°
